Regional Weather Roundup
Issued by NWS

Home | Current Version | Previous Version | Graphics & Text | Print | Product List | Glossary On
Versions: 1 2 3 4 5 6 7 8 9 10 11 12 13 14 15 16 17 18 19 20 21 22 23 24 25 26 27 28 29 30 31 32 33 34 35 36 37 38 39 40 41 42 43 44 45 46 47 48 49 50
000
ASUS45 KBOI 280910
RWRID

IDAHO REGIONAL WEATHER ROUNDUP
NATIONAL WEATHER SERVICE BOISE ID
300 AM MDT SUN AUG 28 2016

NOTE: "FAIR" INDICATES FEW OR NO CLOUDS BELOW 12000 FEET
WITH NO SIGNIFICANT WEATHER AND/OR OBSTRUCTIONS TO VISIBILITY

IDZ012-014-281000-
SOUTHWEST IDAHO


CITY           SKY/WX    TMP DP  RH WIND       PRES   REMARKS
BOISE          CLEAR     66  32  28 S6        29.93R
CALDWELL       CLEAR     62  44  51 SW8       29.93R
MOUNTAIN HOME  CLEAR     60  30  31 E9        29.93R
$$

IDZ016-017-281000-
SOUTHCENTRAL IDAHO


CITY           SKY/WX    TMP DP  RH WIND       PRES   REMARKS
BURLEY         CLEAR     52  43  71 CALM      30.01R
JEROME         CLEAR     62  34  35 E8        30.01R
TWIN FALLS     CLEAR     63  31  30 S10       30.01R
$$

IDZ019>023-281000-
SOUTHEAST IDAHO


CITY           SKY/WX    TMP DP  RH WIND       PRES   REMARKS
IDAHO FALLS    CLEAR     52  34  50 W6        30.06R
POCATELLO      CLEAR     63  28  26 SW9       30.04R
REXBURG        CLEAR     50  34  54 N5        30.05R
$$

IDZ006-010-011-018-031-032-281000-
CENTRAL IDAHO MOUNTAINS


CITY           SKY/WX    TMP DP  RH WIND       PRES   REMARKS
MCCALL         CLEAR     50  37  61 CALM      30.06R
HAILEY         CLEAR     52  32  46 NW8       30.12R
STANLEY          N/A     41  25  53 VRB3      30.18R
SALMON         CLEAR     55  37  50 CALM      29.97R
CHALLIS        CLOUDY    57  26  30 CALM      30.06R HAZE
$$

IDZ002-004-006-007-026-281000-
NORTHERN IDAHO


CITY           SKY/WX    TMP DP  RH WIND       PRES   REMARKS
LEWISTON       PTCLDY    72  49  44 W9        29.90R
LOWELL           N/A     63  52  67 CALM      29.91R
COEUR D`ALENE  PTCLDY    59  41  51 CALM      29.87R
MULLAN PASS    CLEAR     53  38  56 SW8       30.03R
$$



USA.gov is the U.S. government's official web portal to all federal, state and local government web resources and services.